• In Latvia
  • List of Countries
  • For 7 days
  • Water Temperature
  • Satellite Maps
  • Weather Map
  • Weather Widgets
  • user-avatar
    Login

    Hourly Weather Pinsa

    Today, 21 September, Friday

    Time Temperature Precipitation Wind Pressure Humidity
    00:00 +34°C° 0 mm 3 mps 733 mmHg 43%
    01:00 +34°C° 0 mm 3 mps 732 mmHg 45%
    02:00 +33°C° 0 mm 3 mps 732 mmHg 48%
    03:00 +33°C° 0 mm 3 mps 732 mmHg 50%
    04:00 +33°C° 0 mm 3 mps 732 mmHg 51%
    05:00 +32°C° 0 mm 2 mps 732 mmHg 51%
    06:00 +31°C° 0 mm 1 mps 733 mmHg 57%
    07:00 +32°C° 0 mm 2 mps 733 mmHg 54%
    08:00 +34°C° 0 mm 3 mps 733 mmHg 51%
    09:00 +35°C° 0 mm 4 mps 733 mmHg 48%
    10:00 +36°C° 0 mm 3 mps 733 mmHg 43%
    11:00 +38°C° 0 mm 3 mps 733 mmHg 38%
    12:00 +40°C° 0 mm 2 mps 732 mmHg 31%
    13:00 +40°C° 0 mm 2 mps 732 mmHg 29%
    14:00 +40°C° 0 mm 2 mps 731 mmHg 27%
    15:00 +41°C° 0 mm 2 mps 731 mmHg 25%
    16:00 +40°C° 0 mm 2 mps 731 mmHg 26%
    17:00 +40°C° 0 mm 2 mps 731 mmHg 27%
    18:00 +39°C° 0 mm 2 mps 731 mmHg 29%
    19:00 +38°C° 0 mm 2 mps 731 mmHg 31%
    20:00 +38°C° 0 mm 3 mps 732 mmHg 34%
    21:00 +37°C° 0 mm 4 mps 732 mmHg 37%
    22:00 +36°C° 1.1 mm 3 mps 732 mmHg 43%
    23:00 +34°C° 1.1 mm 3 mps 732 mmHg 48%

    Tomorrow, 22 September, Saturday

    Time Temperature Precipitation Wind Pressure Humidity
    00:00 +33°C° 1.1 mm 3 mps 733 mmHg 53%
    01:00 +33°C° 0.3 mm 4 mps 732 mmHg 57%
    02:00 +32°C° 0.3 mm 5 mps 732 mmHg 60%
    03:00 +30°C° 0.3 mm 6 mps 732 mmHg 64%
    04:00 +30°C° 0 mm 5 mps 732 mmHg 65%
    05:00 +30°C° 0 mm 4 mps 732 mmHg 66%
    06:00 +30°C° 0 mm 4 mps 733 mmHg 67%
    07:00 +31°C° 0 mm 3 mps 733 mmHg 61%
    08:00 +33°C° 0 mm 3 mps 734 mmHg 55%
    09:00 +35°C° 0 mm 3 mps 734 mmHg 49%
    10:00 +36°C° 0 mm 3 mps 734 mmHg 45%
    11:00 +37°C° 0 mm 3 mps 734 mmHg 40%
    12:00 +39°C° 0 mm 3 mps 733 mmHg 35%
    13:00 +39°C° 0 mm 2 mps 733 mmHg 33%
    14:00 +40°C° 0 mm 2 mps 732 mmHg 31%
    15:00 +40°C° 0 mm 1 mps 731 mmHg 28%
    16:00 +40°C° 0 mm 1 mps 731 mmHg 29%
    17:00 +40°C° 0 mm 1 mps 731 mmHg 29%
    18:00 +40°C° 0 mm 1 mps 731 mmHg 30%
    19:00 +39°C° 0 mm 2 mps 732 mmHg 32%
    20:00 +38°C° 0 mm 2 mps 732 mmHg 34%
    21:00 +37°C° 0 mm 3 mps 733 mmHg 36%
    22:00 +37°C° 0.1 mm 3 mps 733 mmHg 39%
    23:00 +36°C° 0.1 mm 3 mps 733 mmHg 43%

    Day after tomorrow, 23 September, Sunday

    Time Temperature Precipitation Wind Pressure Humidity
    00:00 +35°C° 0.1 mm 4 mps 733 mmHg 46%
    01:00 +34°C° 0.3 mm 4 mps 733 mmHg 51%
    02:00 +33°C° 0.3 mm 5 mps 732 mmHg 55%
    03:00 +33°C° 0.3 mm 6 mps 732 mmHg 60%
    04:00 +32°C° 0 mm 5 mps 732 mmHg 60%
    05:00 +32°C° 0 mm 4 mps 732 mmHg 60%
    06:00 +32°C° 0 mm 4 mps 733 mmHg 60%
    07:00 +33°C° 0 mm 4 mps 733 mmHg 55%
    08:00 +35°C° 0 mm 4 mps 734 mmHg 50%
    09:00 +36°C° 0 mm 4 mps 734 mmHg 45%
    10:00 +37°C° 0 mm 4 mps 734 mmHg 41%
    11:00 +38°C° 0 mm 3 mps 733 mmHg 37%
    12:00 +39°C° 0 mm 2 mps 733 mmHg 33%
    13:00 +40°C° 0 mm 2 mps 733 mmHg 32%
    14:00 +40°C° 0 mm 1 mps 732 mmHg 31%
    15:00 +40°C° 0 mm 1 mps 732 mmHg 30%
    16:00 +39°C° 0.1 mm 3 mps 732 mmHg 34%
    17:00 +38°C° 0.1 mm 4 mps 732 mmHg 38%
    18:00 +38°C° 0.1 mm 6 mps 732 mmHg 41%
    19:00 +35°C° 3.8 mm 6 mps 733 mmHg 50%
    20:00 +34°C° 3.8 mm 5 mps 734 mmHg 59%
    21:00 +32°C° 3.8 mm 4 mps 734 mmHg 68%
    22:00 +32°C° 0 mm 5 mps 734 mmHg 68%
    23:00 +30°C° 0 mm 6 mps 734 mmHg 69%

    24 September, Monday

    Time Temperature Precipitation Wind Pressure Humidity
    00:00 +30°C° 0 mm 6 mps 734 mmHg 69%
    01:00 +30°C° 0 mm 6 mps 734 mmHg 69%
    02:00 +29°C° 0 mm 6 mps 733 mmHg 69%
    03:00 +29°C° 0 mm 5 mps 733 mmHg 69%
    04:00 +29°C° 0 mm 4 mps 733 mmHg 70%
    05:00 +29°C° 0 mm 3 mps 733 mmHg 70%
    06:00 +29°C° 0 mm 3 mps 734 mmHg 71%
    07:00 +30°C° 0 mm 3 mps 734 mmHg 65%
    08:00 +31°C° 0 mm 3 mps 735 mmHg 60%
    09:00 +34°C° 0 mm 4 mps 735 mmHg 54%
    10:00 +35°C° 0 mm 4 mps 735 mmHg 48%
    11:00 +37°C° 0 mm 4 mps 734 mmHg 42%
    12:00 +38°C° 0 mm 4 mps 734 mmHg 37%
    13:00 +39°C° 0 mm 3 mps 733 mmHg 34%
    14:00 +39°C° 0 mm 3 mps 733 mmHg 32%
    15:00 +40°C° 0 mm 2 mps 732 mmHg 30%
    16:00 +40°C° 0 mm 2 mps 732 mmHg 31%
    17:00 +39°C° 0 mm 2 mps 732 mmHg 32%
    18:00 +39°C° 0 mm 2 mps 732 mmHg 33%
    19:00 +38°C° 0.1 mm 2 mps 733 mmHg 35%
    20:00 +37°C° 0.1 mm 3 mps 733 mmHg 38%
    21:00 +36°C° 0.1 mm 4 mps 734 mmHg 40%
    22:00 +36°C° 0 mm 4 mps 733 mmHg 42%
    23:00 +35°C° 0 mm 5 mps 733 mmHg 45%

    25 September, Tuesday

    Time Temperature Precipitation Wind Pressure Humidity
    00:00 +34°C° 0 mm 6 mps 733 mmHg 47%
    01:00 +34°C° 0 mm 5 mps 733 mmHg 49%
    02:00 +33°C° 0 mm 4 mps 732 mmHg 51%
    03:00 +33°C° 0 mm 3 mps 732 mmHg 53%
    04:00 +32°C° 0 mm 4 mps 732 mmHg 54%
    05:00 +32°C° 0 mm 4 mps 733 mmHg 55%
    06:00 +32°C° 0 mm 4 mps 733 mmHg 57%
    07:00 +33°C° 0 mm 5 mps 733 mmHg 53%
    08:00 +34°C° 0 mm 5 mps 733 mmHg 50%
    09:00 +35°C° 0 mm 6 mps 734 mmHg 46%
    10:00 +38°C° 0 mm 6 mps 733 mmHg 41%
    11:00 +40°C° 0 mm 6 mps 733 mmHg 37%
    12:00 +41°C° 0 mm 6 mps 732 mmHg 32%
    13:00 +42°C° 0 mm 5 mps 732 mmHg 29%
    14:00 +43°C° 0 mm 5 mps 731 mmHg 26%
    15:00 +44°C° 0 mm 4 mps 730 mmHg 23%
    16:00 +43°C° 0 mm 3 mps 730 mmHg 25%
    17:00 +41°C° 0 mm 2 mps 730 mmHg 27%
    18:00 +40°C° 0 mm 1 mps 730 mmHg 28%
    19:00 +40°C° 0 mm 2 mps 730 mmHg 29%
    20:00 +39°C° 0 mm 2 mps 731 mmHg 29%
    21:00 +39°C° 0 mm 3 mps 731 mmHg 30%
    22:00 +38°C° 0 mm 4 mps 731 mmHg 35%
    23:00 +36°C° 0 mm 4 mps 731 mmHg 40%

    26 September, Wednesday

    Time Temperature Precipitation Wind Pressure Humidity
    00:00 +35°C° 0 mm 5 mps 731 mmHg 45%
    01:00 +35°C° 0 mm 5 mps 730 mmHg 48%
    02:00 +34°C° 0 mm 5 mps 730 mmHg 51%
    03:00 +34°C° 0 mm 5 mps 730 mmHg 54%
    04:00 +33°C° 0 mm 5 mps 731 mmHg 57%
    05:00 +33°C° 0 mm 5 mps 731 mmHg 59%
    06:00 +32°C° 0 mm 5 mps 732 mmHg 61%
    07:00 +33°C° 0 mm 6 mps 732 mmHg 60%
    08:00 +33°C° 0 mm 7 mps 733 mmHg 59%
    09:00 +34°C° 0 mm 8 mps 733 mmHg 59%
    10:00 +36°C° 0 mm 7 mps 733 mmHg 52%
    11:00 +38°C° 0 mm 6 mps 733 mmHg 46%
    12:00 +40°C° 0 mm 5 mps 732 mmHg 40%
    13:00 +41°C° 0 mm 5 mps 732 mmHg 38%
    14:00 +41°C° 0 mm 4 mps 731 mmHg 35%
    15:00 +42°C° 0 mm 3 mps 730 mmHg 32%
    16:00 +40°C° 0 mm 3 mps 731 mmHg 34%
    17:00 +39°C° 0 mm 3 mps 731 mmHg 35%
    18:00 +39°C° 0 mm 3 mps 731 mmHg 37%
    19:00 +38°C° 0 mm 4 mps 731 mmHg 40%
    20:00 +37°C° 0 mm 4 mps 732 mmHg 44%
    21:00 +36°C° 0 mm 5 mps 733 mmHg 47%
    22:00 +36°C° 0 mm 5 mps 732 mmHg 49%
    23:00 +35°C° 0 mm 5 mps 732 mmHg 51%
    Show more